Flag for Cabo Verde Weather past 2 weeks in Santa Maria, Cabo Verde

Now
88 °F

Passing clouds.


Feels Like: 94 °F
Forecast: N/A
Wind: 13 mph from Northeast

Location: Sal

Current Time: Aug 28, 2014 at 3:12:59 PM

Latest Report: Aug 28, 2014 at 2:00 PM


Visibility: N/A

Pressure: 29.92 "Hg

Humidity: 59%

Dew point: 72 °F

Location of Santa MariaLocation

Historic Weather in Santa Maria — Graph

°F

Santa Maria temperature yesterday

Maximum temperature yesterday: 90 °F (at 1:00 PM)
Minimum temperature yesterday: 75 °F (at 3:00 AM)
Average temperature yesterday: 80 °F

Past Weeks' High & Low Weather Summary

 TemperatureHumidityPressure
High90 °F (Aug 27, 1:00 PM)94% (Aug 21, 8:00 AM)30.01 "Hg (Aug 21, 8:00 AM)
Low72 °F (Aug 20, 6:00 AM)52% (Aug 27, 1:00 PM)29.83 "Hg (Aug 13, 3:00 PM)
Average79 °F75%29.93 "Hg
* Reported Aug 13 2:00 PM — Aug 28 2:00 PM, Santa Maria, Weather by CustomWeather, © 2014

Note: Actual official high and low records may vary slightly from our data, if they occured in-between our weather recording intervals... More about our weather records

Advertising

Santa Maria weather history for previous 24 hours

 ConditionsComfort  
Time TempWeatherWind HumidityBarometerVisibility
2:00 PM
Aug 28
88 °FPassing clouds.13 mph59%29.92 "HgN/A
1:00 PM88 °FPassing clouds.15 mph59%29.95 "HgN/A
12:00 PM86 °FPassing clouds.13 mph62%29.95 "HgN/A
11:00 AM84 °FPassing clouds.16 mph66%29.98 "HgN/A
10:00 AM84 °FPassing clouds.14 mph66%29.98 "HgN/A
9:00 AM82 °FPassing clouds.14 mph70%29.95 "HgN/A
8:00 AM79 °FPassing clouds.12 mph79%29.95 "HgN/A
7:00 AM77 °FPassing clouds.7 mph83%29.95 "HgN/A
6:00 AM77 °FScattered clouds.6 mph83%29.95 "HgN/A
5:00 AM77 °FPartly sunny.6 mph83%29.95 "HgN/A
4:00 AM77 °FPassing clouds.7 mph83%29.95 "HgN/A
3:00 AM77 °FPassing clouds.7 mph83%29.95 "HgN/A
2:00 AM77 °FPassing clouds.9 mph83%29.98 "HgN/A
1:00 AM77 °FPassing clouds.10 mph83%29.98 "HgN/A
12:00 AM77 °FPassing clouds.10 mph83%29.98 "HgN/A
11:00 PM
Aug 27
77 °FPassing clouds.9 mph83%29.98 "HgN/A
10:00 PM77 °FPassing clouds.9 mph79%29.98 "HgN/A
9:00 PM77 °FPassing clouds.8 mph79%29.95 "HgN/A
8:00 PM79 °FPassing clouds.9 mph74%29.95 "HgN/A
6:00 PM82 °FPassing clouds.10 mph66%29.92 "HgN/A
5:00 PM82 °FPassing clouds.8 mph66%29.92 "HgN/A
4:00 PM84 °FPartly sunny.9 mph66%29.92 "HgN/A
3:00 PM86 °FBroken clouds.9 mph62%29.92 "HgN/A
Weather by CustomWeather, © 2014

See weather overviewHow to use our weather pages